When you browse on this site, cookies collect data to enhance your experience and personalize the content and advertising you see.
Visit our Privacy Policy to learn more. By continuing to use the site, you agree to this use of cookies and data.
  • In United Kingdom
  • List of Countries
  • For 7 days
  • Water Temperature
  • Weather Map
  • Weather Widgets
  • user-avatar
    Login

    Hourly Weather Julianow

    Today, 24 February, Monday

    Time Temperature Precipitation Wind Pressure Humidity
    00:00 +2°C° 0.9 mm 5 mps 739 mmHg 95%
    01:00 +1°C° 0 mm 6 mps 740 mmHg 93%
    02:00 0°C° 1.1 mm 7 mps 741 mmHg 88%
    03:00 0°C° 1.1 mm 9 mps 742 mmHg 83%
    04:00 +1°C° 1.1 mm 10 mps 743 mmHg 78%
    05:00 +1°C° 0 mm 9 mps 745 mmHg 77%
    06:00 +1°C° 0 mm 9 mps 746 mmHg 75%
    07:00 +2°C° 0 mm 7 mps 748 mmHg 76%
    08:00 +1°C° 0 mm 8 mps 748 mmHg 74%
    09:00 +1°C° 0 mm 8 mps 749 mmHg 73%
    10:00 +2°C° 0 mm 8 mps 750 mmHg 72%
    11:00 +2°C° 0.1 mm 8 mps 750 mmHg 72%
    12:00 +3°C° 0.1 mm 7 mps 750 mmHg 72%
    13:00 +3°C° 0 mm 6 mps 751 mmHg 72%
    14:00 +3°C° 0 mm 6 mps 751 mmHg 71%
    15:00 +3°C° 0 mm 5 mps 751 mmHg 70%
    16:00 +4°C° 0 mm 4 mps 751 mmHg 69%
    17:00 +4°C° 0 mm 4 mps 751 mmHg 71%
    18:00 +3°C° 0 mm 4 mps 750 mmHg 73%
    19:00 +3°C° 0 mm 3 mps 750 mmHg 76%
    20:00 +3°C° 0 mm 3 mps 750 mmHg 76%
    21:00 +3°C° 0 mm 3 mps 749 mmHg 77%
    22:00 +3°C° 0 mm 3 mps 749 mmHg 77%
    23:00 +2°C° 0.1 mm 3 mps 748 mmHg 80%

    Tomorrow, 25 February, Tuesday

    Time Temperature Precipitation Wind Pressure Humidity
    00:00 +1°C° 0.1 mm 4 mps 747 mmHg 83%
    01:00 +1°C° 0.1 mm 4 mps 746 mmHg 86%
    02:00 0°C° 1.2 mm 4 mps 745 mmHg 89%
    03:00 0°C° 1.2 mm 5 mps 743 mmHg 92%
    04:00 0°C° 1.2 mm 5 mps 742 mmHg 96%
    05:00 +1°C° 0.3 mm 5 mps 742 mmHg 95%
    06:00 +1°C° 0.3 mm 4 mps 741 mmHg 94%
    07:00 +3°C° 0.3 mm 4 mps 741 mmHg 94%
    08:00 +3°C° 0.3 mm 5 mps 740 mmHg 93%
    09:00 +6°C° 0.3 mm 5 mps 740 mmHg 92%
    10:00 +7°C° 0.3 mm 5 mps 739 mmHg 91%
    11:00 +7°C° 0.1 mm 5 mps 739 mmHg 89%
    12:00 +8°C° 0.1 mm 5 mps 739 mmHg 87%
    13:00 +8°C° 0.1 mm 5 mps 739 mmHg 84%
    14:00 +8°C° 0.1 mm 5 mps 738 mmHg 83%
    15:00 +8°C° 0.1 mm 5 mps 738 mmHg 82%
    16:00 +8°C° 0.1 mm 5 mps 738 mmHg 81%
    17:00 +8°C° 0.3 mm 5 mps 737 mmHg 84%
    18:00 +8°C° 0.3 mm 5 mps 737 mmHg 86%
    19:00 +7°C° 0.3 mm 5 mps 737 mmHg 89%
    20:00 +7°C° 0.8 mm 5 mps 737 mmHg 86%
    21:00 +6°C° 0.8 mm 5 mps 737 mmHg 83%
    22:00 +4°C° 0.8 mm 6 mps 736 mmHg 80%
    23:00 +5°C° 0 mm 5 mps 737 mmHg 79%

    Day after tomorrow, 26 February, Wednesday

    Time Temperature Precipitation Wind Pressure Humidity
    00:00 +4°C° 0 mm 4 mps 737 mmHg 77%
    01:00 +3°C° 0 mm 3 mps 737 mmHg 75%
    02:00 +3°C° 0 mm 3 mps 737 mmHg 77%
    03:00 +3°C° 0 mm 3 mps 736 mmHg 78%
    04:00 +2°C° 0 mm 3 mps 736 mmHg 80%
    05:00 +2°C° 0 mm 3 mps 736 mmHg 81%
    06:00 +2°C° 0 mm 3 mps 736 mmHg 82%
    07:00 +2°C° 0 mm 3 mps 735 mmHg 84%
    08:00 +3°C° 0 mm 3 mps 735 mmHg 78%
    09:00 +4°C° 0 mm 3 mps 735 mmHg 72%
    10:00 +5°C° 0 mm 3 mps 735 mmHg 66%
    11:00 +5°C° 0 mm 4 mps 734 mmHg 64%
    12:00 +6°C° 0 mm 4 mps 734 mmHg 62%
    13:00 +7°C° 0 mm 4 mps 734 mmHg 61%
    14:00 +6°C° 0.1 mm 4 mps 734 mmHg 64%
    15:00 +6°C° 0.1 mm 4 mps 734 mmHg 67%
    16:00 +5°C° 0.1 mm 3 mps 734 mmHg 70%
    17:00 +5°C° 0.2 mm 4 mps 734 mmHg 75%
    18:00 +3°C° 0.2 mm 5 mps 735 mmHg 80%
    19:00 +2°C° 0.2 mm 5 mps 735 mmHg 85%
    20:00 +1°C° 0.1 mm 5 mps 735 mmHg 82%
    21:00 +1°C° 0.1 mm 5 mps 735 mmHg 80%
    22:00 0°C° 0.1 mm 5 mps 736 mmHg 77%
    23:00 0°C° 0 mm 5 mps 736 mmHg 78%

    27 February, Thursday

    Time Temperature Precipitation Wind Pressure Humidity
    00:00 -1°C° 0 mm 5 mps 736 mmHg 80%
    01:00 -1°C° 0 mm 5 mps 736 mmHg 81%
    02:00 -1°C° 0.3 mm 5 mps 736 mmHg 85%
    03:00 -1°C° 0.3 mm 5 mps 737 mmHg 89%
    04:00 -1°C° 0.3 mm 5 mps 737 mmHg 93%
    05:00 -2°C° 0 mm 6 mps 737 mmHg 90%
    06:00 -2°C° 0 mm 6 mps 738 mmHg 88%
    07:00 -2°C° 0 mm 6 mps 738 mmHg 85%
    08:00 -2°C° 0.1 mm 6 mps 738 mmHg 84%
    09:00 -2°C° 0.1 mm 6 mps 739 mmHg 83%
    10:00 -1°C° 0.1 mm 6 mps 739 mmHg 81%
    11:00 -1°C° 0.1 mm 6 mps 739 mmHg 80%
    12:00 -1°C° 0.1 mm 6 mps 740 mmHg 78%
    13:00 -1°C° 0.1 mm 6 mps 740 mmHg 76%
    14:00 -1°C° 0.1 mm 6 mps 740 mmHg 74%
    15:00 -1°C° 0.1 mm 6 mps 740 mmHg 72%
    16:00 -1°C° 0.1 mm 6 mps 740 mmHg 70%
    17:00 0°C° 0 mm 5 mps 740 mmHg 72%
    18:00 -1°C° 0 mm 4 mps 740 mmHg 75%
    19:00 -1°C° 0 mm 3 mps 740 mmHg 78%
    20:00 -1°C° 0 mm 3 mps 740 mmHg 78%
    21:00 -1°C° 0 mm 3 mps 740 mmHg 79%
    22:00 -1°C° 0 mm 2 mps 740 mmHg 80%
    23:00 -1°C° 0 mm 2 mps 740 mmHg 80%

    28 February, Friday

    Time Temperature Precipitation Wind Pressure Humidity
    00:00 +1°C° 0 mm 1 mps 741 mmHg 81%
    01:00 +1°C° 0 mm 1 mps 741 mmHg 82%
    02:00 +1°C° 0 mm 1 mps 741 mmHg 83%
    03:00 +1°C° 0 mm 1 mps 741 mmHg 84%
    04:00 +1°C° 0 mm 1 mps 741 mmHg 86%
    05:00 +1°C° 0 mm 1 mps 741 mmHg 86%
    06:00 +1°C° 0 mm 1 mps 742 mmHg 87%
    07:00 -1°C° 0 mm 2 mps 742 mmHg 88%
    08:00 0°C° 0 mm 3 mps 743 mmHg 82%
    09:00 +1°C° 0 mm 3 mps 743 mmHg 76%
    10:00 +1°C° 0 mm 4 mps 743 mmHg 70%
    11:00 +1°C° 0.1 mm 5 mps 744 mmHg 69%
    12:00 +2°C° 0.1 mm 6 mps 744 mmHg 67%
    13:00 +2°C° 0.1 mm 7 mps 744 mmHg 66%
    14:00 0°C° 0.1 mm 7 mps 745 mmHg 70%
    15:00 +1°C° 0.1 mm 6 mps 745 mmHg 74%
    16:00 -1°C° 0.1 mm 6 mps 745 mmHg 78%
    17:00 -1°C° 0.1 mm 5 mps 746 mmHg 80%
    18:00 -1°C° 0.1 mm 5 mps 747 mmHg 81%
    19:00 -2°C° 0.1 mm 5 mps 748 mmHg 82%
    20:00 -3°C° 0 mm 4 mps 748 mmHg 78%
    21:00 -3°C° 0 mm 4 mps 749 mmHg 74%
    22:00 -4°C° 0 mm 4 mps 749 mmHg 71%
    23:00 -4°C° 0 mm 4 mps 749 mmHg 71%

    29 February, Saturday

    Time Temperature Precipitation Wind Pressure Humidity
    00:00 -4°C° 0 mm 4 mps 749 mmHg 71%
    01:00 -4°C° 0 mm 4 mps 749 mmHg 71%
    02:00 -4°C° 0 mm 4 mps 749 mmHg 73%
    03:00 -4°C° 0 mm 3 mps 749 mmHg 74%
    04:00 -4°C° 0 mm 3 mps 749 mmHg 76%
    05:00 -4°C° 0 mm 3 mps 749 mmHg 79%
    06:00 -4°C° 0 mm 3 mps 749 mmHg 82%
    07:00 -2°C° 0 mm 2 mps 749 mmHg 85%
    08:00 -1°C° 0 mm 2 mps 749 mmHg 78%
    09:00 +1°C° 0 mm 2 mps 748 mmHg 71%
    10:00 +2°C° 0 mm 2 mps 748 mmHg 64%
    11:00 +2°C° 0 mm 3 mps 747 mmHg 60%
    12:00 +2°C° 0 mm 3 mps 747 mmHg 57%
    13:00 +3°C° 0 mm 4 mps 746 mmHg 53%
    14:00 +3°C° 0 mm 4 mps 745 mmHg 55%
    15:00 +3°C° 0 mm 4 mps 744 mmHg 58%
    16:00 +3°C° 0 mm 4 mps 744 mmHg 60%
    17:00 +1°C° 0 mm 5 mps 743 mmHg 63%
    18:00 +1°C° 0 mm 5 mps 742 mmHg 66%
    19:00 +1°C° 0 mm 6 mps 741 mmHg 69%
    20:00 -1°C° 0.1 mm 6 mps 741 mmHg 77%
    21:00 -1°C° 0.1 mm 6 mps 740 mmHg 84%
    22:00 -1°C° 0.1 mm 7 mps 739 mmHg 91%
    23:00 0°C° 0.7 mm 7 mps 739 mmHg 91%
    Show more